[[{"header":{"parameterUnit":"m.s-1","parameterCategory":2,"la1":30.2991,"la2":30.254,"lo1":-89.0895,"lo2":-89.0444,"dy":0.0017,"dx":0.0017,"nx":28,"ny":28,"refTime":"2026-02-01T09:00:00:Z","depth":"0","parameterNumber":2,"parameterNumberName":"U-component_of_CURRENTS"},"data":[0,0,0,0,0,0,0,0,0,0,0,0,0,0,0,0,0,0,0,0,0,0,0,0,0,0,0,0,0,0,0,0,0,0,0,0,0,0,0,0,0,0,0,0,0,0,0,0,0,0,0,0,0,0,0,0,0,0,0.1798,0.1799,0,0.1852,0.1852,0.1853,0.1864,0.1864,0.1864,0.1863,0.1865,0.1865,0.1865,0,0,0,0,0,0,0,0,0,0,0,0,0,0.1689,0.1691,0.1798,0.1799,0.18,0.1852,0.1852,0.1853,0.1864,0.1864,0.1864,0.1863,0.1865,0.1865,0.1865,0,0,0,0,0,0,0,0,0,0,0,0,0,0.1737,0.1691,0.1798,0.1813,0.1815,0.1852,0.1852,0.1853,0.1864,0.1864,0.1864,0.1863,0.1865,0.1865,0.1865,0.1873,0,0,0.1866,0.1866,0,0,0,0,0,0,0,0,0.1734,0.174,0.181,0.1812,0.1815,0.1853,0.1815,0.1858,0.1864,0.1843,0.1863,0.1863,0.1858,0.1859,0.1867,0.1873,0.1873,0.1866,0.1867,0.1867,0.1867,0,0,0,0,0,0,0,0.1731,0.1738,0.1817,0.1811,0.1814,0.1812,0.1819,0.1823,0.1848,0.1845,0.1846,0.1856,0.1858,0.1866,0.1867,0.1873,0.1866,0.1867,0.1867,0.1867,0.1906,0.1907,0,0,0,0,0,0,0.173,0.1735,0.1815,0.1819,0.1776,0.1815,0.1822,0.1839,0.185,0.1852,0.1857,0.1857,0.1866,0.1866,0.1867,0.19,0.1867,0.1867,0.1867,0.1906,0.1907,0.1908,0,0,0,0,0,0,0.1728,0.1737,0.1813,0.1779,0.1789,0.1817,0.1836,0.184,0.1852,0.186,0.186,0.1865,0.1866,0.1866,0.188,0.1899,0.1867,0.1867,0.1905,0.1906,0.1907,0.195,0,0,0,0,0,0,0.1725,0.1736,0.1744,0.178,0.1791,0.184,0.1837,0.1842,0.186,0.186,0.1867,0.1867,0.1866,0.188,0.1881,0.1899,0.1868,0.1903,0.1905,0.1907,0.1947,0.1952,0.1957,0,0,0,0,0,0.1721,0.1736,0.1744,0.1754,0.1803,0.1841,0.1846,0.1863,0.186,0.1871,0.1877,0.1867,0.1891,0.1881,0.1882,0.19,0.1903,0.1905,0.1907,0.1945,0.1951,0.1957,0,0,0,0,0,0,0.1689,0.174,0.175,0.1778,0.1809,0.1844,0.1856,0.1866,0.188,0.1878,0.1878,0.1879,0.1898,0.1893,0.1882,0.1916,0.1895,0.1897,0.1924,0.193,0.1935,0.1935,0.1868,0,0,0,0,0,0.1688,0.1714,0.1758,0.1779,0.1797,0.1826,0.1841,0.1856,0.1876,0.1882,0.1887,0.1893,0.1907,0.1913,0.1919,0.1937,0.1947,0.195,0.1954,0.1958,0.1959,0.1991,0.1999,0.1914,0.1914,0.1914,0,0,0.168,0.1712,0.1725,0.1774,0.1798,0.183,0.1834,0.1864,0.1887,0.1879,0.1903,0.1908,0.1915,0.1939,0.1946,0.1937,0.1992,0.1961,0.1964,0.1963,0.1994,0.2002,0.2009,0.1915,0.1915,0.1915,0,0,0.1681,0.1709,0.1732,0.1764,0.1808,0.1831,0.1841,0.1879,0.1894,0.192,0.1923,0.194,0.1954,0.197,0.1978,0.2011,0.2015,0.2013,0.204,0.2071,0.2078,0.2084,0.2126,0.2136,0.2017,0.2017,0.2017,0,0.1665,0.1708,0.1742,0.1776,0.1803,0.1833,0.1863,0.1887,0.1922,0.194,0.193,0.1971,0.1971,0.2012,0.2024,0.2022,0.2044,0.2018,0.2078,0.2084,0.209,0.2131,0.2141,0.202,0.2019,0.2019,0.2019,0,0.1691,0.1724,0.1742,0.1796,0.1827,0.1859,0.1903,0.1928,0.1944,0.1969,0.2008,0.2016,0.2041,0.2047,0.2044,0.2092,0.2097,0.208,0.2064,0.2101,0.2142,0.2152,0.2023,0.2022,0.2021,0.2021,0,0,0.1656,0.1742,0.1747,0.1777,0.1843,0.187,0.1915,0.1968,0.2002,0.2026,0.2069,0.2091,0.2098,0.2107,0.2112,0.2136,0.2198,0.2127,0.2128,0.217,0.2284,0.2351,0.2368,0.2195,0.2197,0.2198,0.2303,0,0.1663,0.1723,0.1768,0.182,0.1856,0.1905,0.1946,0.1996,0.2034,0.2081,0.2104,0.2141,0.2123,0.214,0.2163,0.2191,0.2223,0.2172,0.224,0.2242,0.2297,0.2381,0.2401,0.2502,0.2313,0.2314,0.2315,0,0.1672,0.1714,0.1764,0.1844,0.1864,0.1895,0.197,0.2015,0.209,0.2122,0.2167,0.219,0.2242,0.2209,0.2283,0.2255,0.2273,0.2287,0.2291,0.2342,0.2327,0.243,0.2526,0.2535,0.233,0.2329,0.2328,0,0.1629,0.1711,0.1748,0.1776,0.1865,0.1893,0.194,0.2019,0.2071,0.2151,0.2199,0.2254,0.2297,0.2323,0.2366,0.233,0.2448,0.2399,0.2477,0.2482,0.2507,0.2512,0.2619,0.2446,0.2446,0.2446,0.2446,0,0.162,0.1649,0.1729,0.1749,0.18,0.1869,0.1929,0.1989,0.2081,0.2158,0.2215,0.2289,0.2327,0.2401,0.2408,0.2503,0.2489,0.2509,0.2524,0.2525,0.253,0.2542,0.2517,0.245,0.2449,0.2448,0.2447,0,0.1564,0.1619,0.1665,0.1751,0.178,0.1812,0.1921,0.1971,0.2067,0.217,0.2203,0.2334,0.2451,0.2501,0.2571,0.2582,0.2617,0.2667,0.2679,0.2694,0.2765,0.2741,0.2721,0.2621,0.2775,0.2778,0.278,0,0.154,0.1558,0.1645,0.1674,0.171,0.1774,0.1826,0.194,0.2013,0.2205,0.2262,0.2415,0.2538,0.2698,0.276,0.2835,0.272,0.2873,0.28,0.281,0.2791,0.2637,0.2539,0.2852,0.2854,0.2856,0.2858,0,0.1491,0.1518,0.1557,0.1621,0.1671,0.1739,0.1831,0.189,0.2046,0.2163,0.2343,0.2461,0.2674,0.2802,0.2925,0.2956,0.2811,0.2918,0.292,0.2873,0.2718,0.2615,0.2743,0.2876,0.2874,0.2873,0.2872,0.2871,0.1443,0.1456,0.1512,0.1566,0.1629,0.1702,0.1749,0.1874,0.2005,0.2199,0.2345,0.2546,0.2801,0.3006,0.3012,0.3115,0.2954,0.3078,0.3053,0.2899,0.2787,0.2974,0.3124,0.3124,0.3124,0.3123,0.3123,0,0.1383,0.1415,0.1462,0.1533,0.1579,0.1636,0.1754,0.1812,0.1953,0.2189,0.2361,0.2712,0.2916,0.3085,0.3319,0.3287,0.3062,0.3213,0.2999,0.2891,0.3093,0.3085,0.3245,0.3245,0.3245,0.3245,0.3245,0.3245,0.1355,0.1372,0.1404,0.1463,0.1516,0.1583,0.1637,0.175,0.192,0.2198,0.2439,0.2634,0.3105,0.3509,0.3603,0.3491,0.3184,0.3105,0.297,0.317,0.3154,0.3138,0.3127,0.3292,0.3292,0.2676,0.2672,0.267]},{"header":{"parameterUnit":"m.s-1","parameterCategory":2,"la1":30.2991,"la2":30.254,"lo1":-89.0895,"lo2":-89.0444,"dy":0.0017,"dx":0.0017,"nx":28,"ny":28,"refTime":"2026-02-01T09:00:00:Z","depth":"0","parameterNumber":3,"parameterNumberName":"V-component_of_CURRENTS"},"data":[0,0,0,0,0,0,0,0,0,0,0,0,0,0,0,0,0,0,0,0,0,0,0,0,0,0,0,0,0,0,0,0,0,0,0,0,0,0,0,0,0,0,0,0,0,0,0,0,0,0,0,0,0,0,0,0,0,0,-0.0346,-0.0346,0,-0.0387,-0.0387,-0.0388,-0.0425,-0.0426,-0.0426,-0.0427,-0.0484,-0.0485,-0.0487,0,0,0,0,0,0,0,0,0,0,0,0,0,-0.0336,-0.0336,-0.0346,-0.0346,-0.0347,-0.0387,-0.0387,-0.0388,-0.0425,-0.0426,-0.0426,-0.0427,-0.0484,-0.0485,-0.0487,0,0,0,0,0,0,0,0,0,0,0,0,0,-0.0355,-0.0336,-0.0345,-0.037,-0.0372,-0.0387,-0.0387,-0.0388,-0.0425,-0.0426,-0.0426,-0.0427,-0.0484,-0.0485,-0.0487,-0.0484,0,0,-0.0492,-0.0493,0,0,0,0,0,0,0,0,-0.0354,-0.0356,-0.0366,-0.0368,-0.0371,-0.0401,-0.0405,-0.0421,-0.0425,-0.0405,-0.0427,-0.0427,-0.0458,-0.0461,-0.0468,-0.0487,-0.049,-0.0492,-0.0493,-0.0494,-0.0494,0,0,0,0,0,0,0,-0.0353,-0.0354,-0.0362,-0.0366,-0.037,-0.0392,-0.0395,-0.0409,-0.0428,-0.0407,-0.041,-0.0414,-0.0459,-0.0466,-0.0469,-0.049,-0.0492,-0.0494,-0.0495,-0.0495,-0.0527,-0.0527,0,0,0,0,0,0,-0.0344,-0.0353,-0.0361,-0.0363,-0.0364,-0.0391,-0.0395,-0.0391,-0.0427,-0.0433,-0.0413,-0.0416,-0.0463,-0.0467,-0.0472,-0.047,-0.0494,-0.0496,-0.0497,-0.0527,-0.0527,-0.0527,0,0,0,0,0,0,-0.0344,-0.0344,-0.0359,-0.0359,-0.0363,-0.039,-0.0386,-0.0392,-0.0399,-0.0432,-0.0438,-0.0415,-0.0463,-0.0469,-0.0482,-0.0473,-0.0496,-0.0498,-0.0527,-0.0527,-0.0527,-0.0468,0,0,0,0,0,0,-0.0343,-0.0344,-0.0337,-0.0358,-0.0362,-0.0359,-0.0386,-0.0392,-0.04,-0.0404,-0.0435,-0.0442,-0.0464,-0.0479,-0.0483,-0.0476,-0.0499,-0.0528,-0.0527,-0.0527,-0.047,-0.0466,-0.0462,0,0,0,0,0,-0.0343,-0.0323,-0.0336,-0.0338,-0.0353,-0.0358,-0.0362,-0.0385,-0.04,-0.0395,-0.042,-0.0441,-0.0481,-0.048,-0.0485,-0.0478,-0.0528,-0.0527,-0.0527,-0.0472,-0.0467,-0.0462,0,0,0,0,0,0,-0.0309,-0.0325,-0.0341,-0.0326,-0.034,-0.0364,-0.036,-0.0379,-0.0395,-0.0399,-0.0435,-0.0442,-0.0452,-0.0472,-0.0471,-0.0488,-0.0509,-0.0509,-0.0465,-0.0461,-0.0457,-0.044,-0.0501,0,0,0,0,0,-0.03,-0.0293,-0.0315,-0.0303,-0.0308,-0.0335,-0.0341,-0.0356,-0.0375,-0.0383,-0.0407,-0.0433,-0.0454,-0.0463,-0.0483,-0.0487,-0.0515,-0.0488,-0.0484,-0.048,-0.0471,-0.0513,-0.0512,-0.0525,-0.0525,-0.0525,0,0,-0.0282,-0.0292,-0.0287,-0.0297,-0.031,-0.0304,-0.034,-0.0341,-0.0338,-0.0386,-0.0387,-0.0418,-0.0452,-0.046,-0.0466,-0.0475,-0.0491,-0.0479,-0.0476,-0.0469,-0.0512,-0.0511,-0.051,-0.0525,-0.0525,-0.0525,0,0,-0.0242,-0.0254,-0.0236,-0.0244,-0.026,-0.0277,-0.0275,-0.0298,-0.031,-0.0317,-0.0354,-0.0378,-0.0405,-0.0428,-0.0444,-0.0429,-0.0469,-0.0439,-0.0402,-0.0442,-0.0441,-0.0441,-0.0472,-0.0475,-0.0435,-0.0435,-0.0435,0,-0.0221,-0.0203,-0.023,-0.0217,-0.0217,-0.026,-0.0239,-0.0256,-0.0281,-0.0288,-0.0309,-0.0359,-0.0389,-0.0403,-0.04,-0.0418,-0.0447,-0.0415,-0.0436,-0.0436,-0.0437,-0.0469,-0.0473,-0.0432,-0.0432,-0.0433,-0.0433,0,-0.017,-0.0158,-0.0146,-0.0146,-0.0149,-0.0138,-0.0166,-0.0173,-0.0198,-0.0222,-0.0245,-0.0293,-0.0323,-0.034,-0.0365,-0.0381,-0.0402,-0.0427,-0.0445,-0.0432,-0.0467,-0.0472,-0.0428,-0.0429,-0.043,-0.043,0,0,-0.0115,-0.011,-0.0107,-0.0094,-0.0111,-0.0104,-0.0101,-0.0111,-0.0108,-0.0151,-0.0154,-0.0202,-0.0241,-0.0262,-0.0305,-0.0339,-0.037,-0.0379,-0.0382,-0.0403,-0.0456,-0.0479,-0.0487,-0.0402,-0.0403,-0.0403,-0.0477,0,-0.0067,-0.0024,-0.0038,0.0001,0.0022,-0.0014,-0.0005,-0.0023,-0.0054,-0.0069,-0.0133,-0.0155,-0.0208,-0.0225,-0.0269,-0.0345,-0.0381,-0.0347,-0.0471,-0.0474,-0.0492,-0.0493,-0.0513,-0.0582,-0.0482,-0.0483,-0.0484,0,-0.0013,0.0009,0.0058,0.0077,0.0083,0.0095,0.0096,0.0096,0.0053,0.003,-0.0016,-0.0071,-0.0127,-0.0177,-0.0298,-0.0275,-0.0356,-0.0419,-0.0424,-0.0468,-0.0507,-0.0582,-0.0595,-0.0819,-0.0492,-0.0491,-0.0491,0,0.0041,0.0077,0.0119,0.0126,0.0139,0.015,0.0149,0.0124,0.0131,0.0085,0.0084,-0.0004,-0.0043,-0.0156,-0.0289,-0.0296,-0.0425,-0.0455,-0.055,-0.0553,-0.0605,-0.0611,-0.0844,-0.0539,-0.0539,-0.0539,-0.0538,0,0.0099,0.0133,0.0148,0.0171,0.0224,0.0204,0.0242,0.0226,0.0206,0.0229,0.0136,0.0132,-0.0041,-0.0137,-0.0266,-0.0421,-0.0412,-0.0542,-0.0575,-0.0585,-0.0588,-0.0813,-0.0941,-0.0541,-0.0541,-0.054,-0.054,0,0.0151,0.0159,0.0212,0.0237,0.025,0.0283,0.0308,0.0333,0.0304,0.0328,0.032,0.0225,0.0103,-0.0071,-0.0257,-0.0383,-0.0671,-0.0589,-0.0585,-0.0616,-0.0909,-0.1032,-0.1308,-0.1404,-0.0706,-0.0707,-0.0708,0,0.0182,0.0215,0.0265,0.0304,0.0317,0.0361,0.0396,0.0382,0.0414,0.0397,0.0421,0.0306,0.0252,-0.0035,-0.0288,-0.0523,-0.0724,-0.0701,-0.0721,-0.0932,-0.1095,-0.1194,-0.1261,-0.0769,-0.077,-0.0772,-0.0772,0,0.0242,0.0255,0.03,0.0383,0.0431,0.0493,0.0539,0.0581,0.0578,0.0595,0.0603,0.0553,0.0272,0.0018,-0.0322,-0.0502,-0.0891,-0.0729,-0.0963,-0.1175,-0.1287,-0.1391,-0.071,-0.0782,-0.0781,-0.078,-0.078,-0.0779,0.0286,0.0332,0.0393,0.0476,0.0538,0.0626,0.0699,0.0745,0.0807,0.0852,0.0769,0.073,0.0313,-0.0153,-0.0439,-0.0983,-0.0977,-0.114,-0.1273,-0.1353,-0.1457,-0.0787,-0.0887,-0.0887,-0.0887,-0.0886,-0.0886,0,0.0345,0.0401,0.0485,0.059,0.0687,0.0697,0.0804,0.088,0.0978,0.0987,0.0985,0.0724,0.0222,-0.0294,-0.1015,-0.1432,-0.159,-0.1682,-0.1848,-0.1887,-0.1306,-0.1318,-0.15,-0.15,-0.15,-0.1499,-0.1499,-0.1499,0.0379,0.0473,0.0524,0.0707,0.0787,0.0931,0.1007,0.1089,0.1132,0.114,0.1076,0.098,0.0519,-0.082,-0.1778,-0.2008,-0.2327,-0.2411,-0.255,-0.218,-0.214,-0.2102,-0.2144,-0.2496,-0.2498,-0.3072,-0.3078,-0.3083]}],[{"header":{"parameterUnit":"m.s-1","parameterCategory":2,"la1":30.2991,"la2":30.254,"lo1":-89.0895,"lo2":-89.0444,"dy":0.0017,"dx":0.0017,"nx":28,"ny":28,"refTime":"2026-02-01T09:00:00:Z","depth":"2","parameterNumber":2,"parameterNumberName":"U-component_of_CURRENTS"},"data":[0,0,0,0,0,0,0,0,0,0,0,0,0,0,0,0,0,0,0,0,0,0,0,0,0,0,0,0,0,0,0,0,0,0,0,0,0,0,0,0,0,0,0,0,0,0,0,0,0,0,0,0,0,0,0,0,0,0,0.1752,0.1753,0,0.1805,0.1806,0.1806,0.1818,0.1818,0.1818,0.1818,0.182,0.182,0.182,0,0,0,0,0,0,0,0,0,0,0,0,0,0.1645,0.1647,0.1752,0.1753,0.1754,0.1805,0.1806,0.1806,0.1818,0.1818,0.1818,0.1818,0.182,0.182,0.182,0,0,0,0,0,0,0,0,0,0,0,0,0,0.1692,0.1648,0.1752,0.1768,0.177,0.1805,0.1806,0.1806,0.1818,0.1818,0.1818,0.1818,0.182,0.182,0.1821,0.1826,0,0,0.1821,0.1822,0,0,0,0,0,0,0,0,0.1689,0.1695,0.1765,0.1767,0.177,0.1807,0.1769,0.1811,0.1818,0.1797,0.1818,0.1818,0.1813,0.1814,0.1821,0.1827,0.1827,0.1821,0.1822,0.1822,0.1822,0,0,0,0,0,0,0,0.1686,0.1693,0.1771,0.1766,0.1769,0.1767,0.1773,0.1777,0.1803,0.1799,0.1801,0.1811,0.1813,0.1821,0.1821,0.1827,0.1821,0.1822,0.1822,0.1822,0.1861,0.1862,0,0,0,0,0,0,0.1686,0.1691,0.1769,0.1773,0.1731,0.177,0.1776,0.1793,0.1804,0.1807,0.1811,0.1811,0.1821,0.1821,0.1821,0.1855,0.1822,0.1822,0.1822,0.186,0.1861,0.1862,0,0,0,0,0,0,0.1684,0.1693,0.1767,0.1734,0.1744,0.1772,0.1791,0.1794,0.1807,0.1814,0.1815,0.182,0.1821,0.1821,0.1835,0.1854,0.1822,0.1822,0.1859,0.186,0.1861,0.1905,0,0,0,0,0,0,0.168,0.1692,0.17,0.1734,0.1746,0.1794,0.1791,0.1796,0.1814,0.1815,0.1822,0.1822,0.182,0.1835,0.1836,0.1854,0.1823,0.1858,0.186,0.1861,0.1902,0.1907,0.1911,0,0,0,0,0,0.1676,0.1692,0.1701,0.171,0.1758,0.1795,0.18,0.1817,0.1815,0.1826,0.1832,0.1822,0.1846,0.1836,0.1837,0.1855,0.1857,0.1859,0.1861,0.19,0.1906,0.1911,0,0,0,0,0,0,0.1646,0.1696,0.1706,0.1734,0.1765,0.1798,0.181,0.182,0.1835,0.1834,0.1833,0.1834,0.1853,0.1848,0.1837,0.1871,0.185,0.1852,0.1879,0.1885,0.1889,0.189,0.1823,0,0,0,0,0,0.1645,0.1671,0.1714,0.1736,0.1753,0.1781,0.1797,0.1811,0.1831,0.1837,0.1843,0.1849,0.1862,0.1868,0.1874,0.1892,0.1901,0.1904,0.1909,0.1913,0.1914,0.1944,0.1952,0.1868,0.1868,0.1868,0,0,0.1638,0.167,0.1683,0.1731,0.1755,0.1786,0.179,0.182,0.1842,0.1834,0.1859,0.1864,0.187,0.1893,0.1901,0.1891,0.1945,0.1915,0.1919,0.1917,0.1947,0.1955,0.1962,0.187,0.1869,0.1869,0,0,0.164,0.1668,0.1691,0.1722,0.1766,0.1788,0.1798,0.1836,0.1851,0.1877,0.188,0.1897,0.1911,0.1925,0.1932,0.1966,0.1968,0.1968,0.1994,0.2024,0.2031,0.2037,0.2078,0.2088,0.1972,0.1972,0.1972,0,0.1625,0.1668,0.1701,0.1735,0.1762,0.1791,0.1821,0.1844,0.1879,0.1897,0.1888,0.1927,0.1927,0.1966,0.1979,0.1977,0.1998,0.1973,0.2031,0.2037,0.2043,0.2083,0.2093,0.1974,0.1974,0.1973,0.1973,0,0.1652,0.1685,0.1703,0.1756,0.1786,0.1819,0.1861,0.1886,0.1903,0.1927,0.1966,0.1973,0.1997,0.2002,0.2,0.2046,0.2051,0.2033,0.2017,0.2054,0.2094,0.2103,0.1977,0.1976,0.1976,0.1975,0,0,0.1619,0.1703,0.1708,0.1739,0.1803,0.183,0.1874,0.1926,0.1959,0.1984,0.2026,0.2047,0.2054,0.2063,0.2067,0.2089,0.2151,0.2081,0.2082,0.2123,0.2233,0.2294,0.231,0.2147,0.2148,0.2149,0.2251,0,0.1627,0.1686,0.173,0.1782,0.1817,0.1865,0.1906,0.1954,0.1991,0.2038,0.2059,0.2096,0.2078,0.2096,0.2118,0.2144,0.2175,0.2125,0.2189,0.2191,0.2242,0.2323,0.2126,0.2205,0.2261,0.2262,0.2263,0,0.1636,0.1678,0.1728,0.1806,0.1826,0.1857,0.1931,0.1974,0.2048,0.2079,0.2123,0.2146,0.2196,0.2164,0.2235,0.2207,0.2224,0.2237,0.2241,0.2286,0.227,0.2173,0.222,0.2279,0.2278,0.2277,0.2276,0,0.1595,0.1676,0.1714,0.1741,0.1829,0.1856,0.1903,0.198,0.203,0.2109,0.2156,0.2209,0.225,0.2275,0.2315,0.228,0.2394,0.2345,0.2417,0.2422,0.2261,0.225,0.2391,0.2391,0.2391,0.239,0.239,0,0.1587,0.1617,0.1696,0.1716,0.1766,0.1835,0.1893,0.1952,0.2042,0.2117,0.2172,0.2244,0.228,0.2351,0.2356,0.2446,0.2434,0.2449,0.2462,0.2275,0.2264,0.232,0.2311,0.2394,0.2393,0.2393,0.2392,0,0.1533,0.1588,0.1634,0.1719,0.1747,0.1779,0.1886,0.1935,0.2029,0.213,0.2162,0.2288,0.24,0.2448,0.2515,0.2522,0.2577,0.2601,0.2397,0.2386,0.2569,0.2561,0.2695,0.2698,0.2701,0.2703,0.2705,0,0.1511,0.1529,0.1615,0.1644,0.168,0.1743,0.1794,0.1906,0.1977,0.2164,0.2217,0.2366,0.2478,0.263,0.2651,0.2711,0.2687,0.257,0.2469,0.2607,0.2605,0.2592,0.258,0.2265,0.2263,0.2261,0.226,0,0.1463,0.1491,0.1529,0.1593,0.1642,0.1708,0.1799,0.1855,0.2008,0.2116,0.2288,0.2396,0.2567,0.2569,0.2669,0.2662,0.2547,0.2549,0.2736,0.2244,0.2217,0.2211,0.2209,0.2247,0.2248,0.2249,0.225,0.225,0.1417,0.143,0.1486,0.1539,0.1601,0.1671,0.1715,0.1819,0.1938,0.2077,0.2241,0.233,0.2411,0.2478,0.2459,0.244,0.2596,0.2463,0.246,0.246,0.2418,0.24,0.2456,0.2458,0.246,0.2462,0.2464,0,0.1353,0.139,0.1436,0.1505,0.154,0.1607,0.1719,0.1732,0.1836,0.1975,0.2099,0.2011,0.2089,0.2149,0.2122,0.2197,0.2086,0.2106,0.1908,0.1927,0.1943,0.1864,0.1761,0.1758,0.1755,0.1753,0,0,0.1324,0.1339,0.137,0.1417,0.1474,0.1509,0.156,0.1583,0.1657,0.169,0.1733,0.1932,0.2083,0.1848,0.1884,0.1806,0.1826,0.1748,0.2323,0.2107,0.2117,0.2183,0.2093,0,0,0,0,0]},{"header":{"parameterUnit":"m.s-1","parameterCategory":2,"la1":30.2991,"la2":30.254,"lo1":-89.0895,"lo2":-89.0444,"dy":0.0017,"dx":0.0017,"nx":28,"ny":28,"refTime":"2026-02-01T09:00:00:Z","depth":"2","parameterNumber":3,"parameterNumberName":"V-component_of_CURRENTS"},"data":[0,0,0,0,0,0,0,0,0,0,0,0,0,0,0,0,0,0,0,0,0,0,0,0,0,0,0,0,0,0,0,0,0,0,0,0,0,0,0,0,0,0,0,0,0,0,0,0,0,0,0,0,0,0,0,0,0,0,-0.0263,-0.0263,0,-0.0305,-0.0305,-0.0306,-0.0343,-0.0344,-0.0344,-0.0344,-0.0402,-0.0403,-0.0404,0,0,0,0,0,0,0,0,0,0,0,0,0,-0.025,-0.025,-0.0263,-0.0263,-0.0264,-0.0305,-0.0305,-0.0306,-0.0343,-0.0344,-0.0344,-0.0345,-0.0402,-0.0403,-0.0404,0,0,0,0,0,0,0,0,0,0,0,0,0,-0.027,-0.025,-0.0263,-0.0287,-0.029,-0.0304,-0.0305,-0.0306,-0.0343,-0.0344,-0.0344,-0.0345,-0.0401,-0.0403,-0.0404,-0.0402,0,0,-0.041,-0.041,0,0,0,0,0,0,0,0,-0.0269,-0.027,-0.0283,-0.0286,-0.0289,-0.0319,-0.0322,-0.0339,-0.0343,-0.0323,-0.0344,-0.0345,-0.0375,-0.0379,-0.0385,-0.0404,-0.0407,-0.041,-0.0411,-0.0411,-0.0412,0,0,0,0,0,0,0,-0.0267,-0.0269,-0.0279,-0.0284,-0.0287,-0.0308,-0.0311,-0.0325,-0.0345,-0.0325,-0.0327,-0.0332,-0.0377,-0.0384,-0.0387,-0.0408,-0.041,-0.0411,-0.0412,-0.0413,-0.0446,-0.0446,0,0,0,0,0,0,-0.0259,-0.0267,-0.0278,-0.0281,-0.028,-0.0308,-0.0311,-0.0309,-0.0345,-0.0351,-0.0331,-0.0333,-0.038,-0.0385,-0.0389,-0.039,-0.0411,-0.0413,-0.0414,-0.0446,-0.0446,-0.0446,0,0,0,0,0,0,-0.0259,-0.0259,-0.0276,-0.0275,-0.0279,-0.0307,-0.0304,-0.0309,-0.0317,-0.035,-0.0356,-0.0334,-0.0381,-0.0387,-0.04,-0.0393,-0.0414,-0.0415,-0.0446,-0.0446,-0.0446,-0.0391,0,0,0,0,0,0,-0.0258,-0.0259,-0.0253,-0.0274,-0.0279,-0.0277,-0.0303,-0.031,-0.0319,-0.0322,-0.0354,-0.036,-0.0382,-0.0397,-0.0402,-0.0395,-0.0417,-0.0446,-0.0446,-0.0446,-0.0393,-0.0389,-0.0386,0,0,0,0,0,-0.0257,-0.0239,-0.0253,-0.0254,-0.027,-0.0277,-0.028,-0.0303,-0.0318,-0.0315,-0.034,-0.0359,-0.0399,-0.0398,-0.0404,-0.0398,-0.0446,-0.0446,-0.0446,-0.0395,-0.039,-0.0386,0,0,0,0,0,0,-0.0225,-0.0242,-0.0257,-0.0244,-0.0259,-0.0283,-0.028,-0.0299,-0.0316,-0.032,-0.0354,-0.0361,-0.0372,-0.0392,-0.039,-0.0408,-0.0427,-0.0428,-0.0387,-0.0382,-0.0379,-0.0363,-0.0418,0,0,0,0,0,-0.0217,-0.0211,-0.0233,-0.0223,-0.0228,-0.0255,-0.0262,-0.0277,-0.0296,-0.0304,-0.0328,-0.0354,-0.0374,-0.0383,-0.0404,-0.0408,-0.0436,-0.041,-0.0406,-0.0403,-0.0394,-0.0436,-0.0435,-0.0445,-0.0445,-0.0445,0,0,-0.02,-0.021,-0.0207,-0.0217,-0.0231,-0.0226,-0.026,-0.0263,-0.0261,-0.0307,-0.0309,-0.0341,-0.0373,-0.0382,-0.0388,-0.0397,-0.0415,-0.0402,-0.0399,-0.0393,-0.0435,-0.0434,-0.0434,-0.0445,-0.0445,-0.0445,0,0,-0.0162,-0.0175,-0.0158,-0.0168,-0.0185,-0.0201,-0.0199,-0.0223,-0.0235,-0.0244,-0.0279,-0.0304,-0.033,-0.0354,-0.0369,-0.0356,-0.0395,-0.0366,-0.0331,-0.0371,-0.0371,-0.0371,-0.0402,-0.0405,-0.0362,-0.0362,-0.0362,0,-0.0143,-0.0127,-0.0154,-0.0142,-0.0143,-0.0185,-0.0166,-0.0183,-0.0209,-0.0216,-0.0236,-0.0287,-0.0316,-0.0331,-0.0329,-0.0346,-0.0375,-0.0343,-0.0366,-0.0366,-0.0367,-0.0399,-0.0403,-0.036,-0.036,-0.036,-0.036,0,-0.0095,-0.0085,-0.0075,-0.0076,-0.0079,-0.007,-0.0097,-0.0105,-0.0131,-0.0154,-0.0178,-0.0225,-0.0255,-0.0272,-0.0296,-0.0314,-0.0334,-0.0357,-0.0374,-0.0363,-0.0397,-0.0402,-0.0356,-0.0357,-0.0357,-0.0358,0,0,-0.0044,-0.0041,-0.0038,-0.0026,-0.0043,-0.0037,-0.0037,-0.0047,-0.0045,-0.0088,-0.0091,-0.014,-0.0179,-0.0199,-0.024,-0.0275,-0.0307,-0.0313,-0.0316,-0.0337,-0.0392,-0.0413,-0.0421,-0.0338,-0.0338,-0.0339,-0.0413,0,0.0001,0.0041,0.0027,0.0064,0.0084,0.0048,0.0055,0.0036,0.0006,-0.001,-0.0073,-0.0095,-0.0147,-0.0164,-0.0208,-0.0282,-0.0319,-0.0285,-0.0405,-0.0408,-0.0424,-0.0427,-0.0389,-0.0453,-0.0418,-0.0419,-0.042,0,0.0051,0.0072,0.0118,0.0137,0.0142,0.0152,0.0152,0.0151,0.0109,0.0086,0.0039,-0.0014,-0.0071,-0.0119,-0.0239,-0.0216,-0.0296,-0.0357,-0.0362,-0.0403,-0.0439,-0.0461,-0.0464,-0.0429,-0.0428,-0.0427,-0.0427,0,0.0103,0.0136,0.0177,0.0183,0.0195,0.0205,0.0204,0.0178,0.0185,0.0139,0.0138,0.005,0.0011,-0.01,-0.0231,-0.0238,-0.0365,-0.0393,-0.0487,-0.0489,-0.0491,-0.0492,-0.0478,-0.0478,-0.0478,-0.0478,-0.0477,0,0.0158,0.019,0.0204,0.0226,0.0277,0.0258,0.0294,0.0277,0.0258,0.028,0.0188,0.0184,0.0013,-0.0081,-0.0208,-0.036,-0.0353,-0.0479,-0.0511,-0.0471,-0.0469,-0.0475,-0.0474,-0.0481,-0.048,-0.0479,-0.0479,0,0.0207,0.0215,0.0265,0.029,0.0303,0.0334,0.0359,0.0383,0.0355,0.0378,0.0369,0.0276,0.0155,-0.0016,-0.0199,-0.0323,-0.047,-0.0526,-0.0463,-0.0487,-0.0572,-0.0567,-0.0638,-0.0639,-0.0641,-0.0642,-0.0642,0,0.0236,0.0268,0.0317,0.0356,0.0368,0.0411,0.0446,0.0432,0.0463,0.0446,0.047,0.0356,0.0302,0.002,-0.0218,-0.0447,-0.0481,-0.0574,-0.0586,-0.0565,-0.0589,-0.0582,-0.0576,-0.0566,-0.0566,-0.0566,-0.0566,0,0.0294,0.0307,0.0351,0.0433,0.048,0.0542,0.0587,0.0629,0.0625,0.0641,0.0648,0.0598,0.0332,0.0102,-0.0228,-0.0383,-0.0537,-0.0585,-0.0584,-0.053,-0.0503,-0.0525,-0.052,-0.0567,-0.0567,-0.0567,-0.0567,-0.0567,0.0336,0.0381,0.0441,0.0523,0.0585,0.0673,0.0745,0.0789,0.085,0.0888,0.0806,0.0744,0.0456,0.0053,-0.0238,-0.0545,-0.0536,-0.0638,-0.0635,-0.0633,-0.061,-0.0587,-0.0662,-0.0662,-0.0662,-0.0663,-0.0663,0,0.0396,0.0449,0.0531,0.0635,0.0733,0.0742,0.0849,0.0925,0.102,0.1006,0.0998,0.0757,0.0456,0.0127,-0.0315,-0.0591,-0.0606,-0.0683,-0.0633,-0.063,-0.0628,-0.0603,-0.0654,-0.0655,-0.0656,-0.0656,0,0,0.043,0.0523,0.0572,0.0752,0.0831,0.0984,0.106,0.1145,0.1173,0.1184,0.1123,0.0981,0.0567,0.0254,-0.0128,-0.0387,-0.0446,-0.0443,-0.0419,-0.0312,-0.0306,-0.0571,-0.0526,0,0,0,0,0]}],[{"header":{"parameterUnit":"m.s-1","parameterCategory":2,"la1":30.2991,"la2":30.254,"lo1":-89.0895,"lo2":-89.0444,"dy":0.0017,"dx":0.0017,"nx":28,"ny":28,"refTime":"2026-02-01T09:00:00:Z","depth":"4","parameterNumber":2,"parameterNumberName":"U-component_of_CURRENTS"},"data":[0,0,0,0,0,0,0,0,0,0,0,0,0,0,0,0,0,0,0,0,0,0,0,0,0,0,0,0,0,0,0,0,0,0,0,0,0,0,0,0,0,0,0,0,0,0,0,0,0,0,0,0,0,0,0,0,0,0,0.1172,0.1173,0,0.1248,0.1249,0.1249,0.1297,0.1298,0.1298,0.1299,0.1352,0.1353,0.1354,0,0,0,0,0,0,0,0,0,0,0,0,0,0.1041,0.1043,0.1172,0.1173,0.1174,0.1248,0.1249,0.125,0.1297,0.1298,0.1298,0.1299,0.1352,0.1353,0.1354,0,0,0,0,0,0,0,0,0,0,0,0,0,0.1104,0.1044,0.1171,0.1208,0.1213,0.1248,0.1249,0.125,0.1297,0.1298,0.1299,0.1299,0.1351,0.1353,0.1354,0.1349,0,0,0.1359,0.1359,0,0,0,0,0,0,0,0,0.11,0.1108,0.1202,0.1206,0.1211,0.1266,0.1223,0.1283,0.1297,0.1263,0.1299,0.13,0.1322,0.1326,0.1336,0.1352,0.1354,0.1359,0.136,0.136,0.1361,0,0,0,0,0,0,0,0.1096,0.1105,0.12,0.1203,0.1208,0.1212,0.1222,0.1234,0.1285,0.1266,0.127,0.1282,0.1324,0.1334,0.1337,0.1355,0.1359,0.136,0.1361,0.1362,0.1441,0.1442,0,0,0,0,0,0,0.1092,0.1101,0.1197,0.1202,0.1159,0.1214,0.1225,0.1246,0.1286,0.1293,0.1281,0.1284,0.1332,0.1336,0.1339,0.1406,0.136,0.1362,0.1363,0.1439,0.1441,0.1442,0,0,0,0,0,0,0.1089,0.11,0.1194,0.1154,0.1167,0.1216,0.1239,0.1247,0.1284,0.1298,0.1305,0.1313,0.1332,0.1337,0.1378,0.1406,0.1362,0.1364,0.1438,0.144,0.1441,0.1495,0,0,0,0,0,0,0.1085,0.1099,0.1122,0.1155,0.1169,0.1234,0.1239,0.1248,0.1289,0.1294,0.1327,0.1332,0.1333,0.1376,0.138,0.1407,0.1365,0.1436,0.1439,0.1441,0.1491,0.1498,0.1504,0,0,0,0,0,0.108,0.1107,0.1123,0.1135,0.1197,0.1235,0.1243,0.1278,0.1291,0.1312,0.1338,0.1332,0.1393,0.1379,0.1382,0.1411,0.1435,0.1438,0.1441,0.1488,0.1497,0.1504,0,0,0,0,0,0,0.1063,0.1116,0.1133,0.1176,0.1212,0.1244,0.1273,0.1292,0.1329,0.1341,0.1349,0.1356,0.1401,0.1398,0.1382,0.144,0.1412,0.1416,0.1447,0.1455,0.1461,0.1459,0.1366,0,0,0,0,0,0.107,0.1108,0.1149,0.1186,0.1206,0.1243,0.1267,0.1291,0.1323,0.1342,0.1365,0.1388,0.141,0.1428,0.1444,0.1477,0.1477,0.1497,0.1503,0.1508,0.151,0.1532,0.154,0.1451,0.1451,0.1451,0,0,0.1074,0.1109,0.1131,0.1186,0.1217,0.1252,0.126,0.1306,0.1339,0.134,0.1397,0.1413,0.1424,0.1463,0.1483,0.1469,0.1538,0.1512,0.1516,0.1515,0.1536,0.1544,0.1552,0.1453,0.1453,0.1452,0,0,0.1091,0.1133,0.1167,0.1199,0.1254,0.1276,0.1294,0.1342,0.1372,0.142,0.143,0.1464,0.15,0.1515,0.1524,0.1573,0.157,0.1582,0.1615,0.1638,0.1645,0.1651,0.1679,0.1688,0.1586,0.1586,0.1586,0,0.1093,0.1144,0.1181,0.1219,0.1251,0.1289,0.1326,0.1359,0.1415,0.1441,0.1447,0.1511,0.1522,0.1565,0.1586,0.1587,0.1602,0.1586,0.1646,0.1652,0.1658,0.1684,0.1693,0.1589,0.1589,0.1589,0.1588,0,0.1128,0.1176,0.12,0.1261,0.1297,0.1339,0.1384,0.1427,0.1464,0.1493,0.1553,0.1573,0.161,0.162,0.162,0.167,0.1669,0.165,0.1626,0.167,0.1695,0.1703,0.1593,0.1592,0.1591,0.1591,0,0,0.1111,0.1206,0.1217,0.1253,0.1326,0.1356,0.1415,0.1474,0.1516,0.1567,0.1618,0.1659,0.1675,0.1686,0.1694,0.1715,0.1773,0.1707,0.1707,0.1733,0.1837,0.1761,0.1762,0.1769,0.1771,0.1772,0.1844,0,0.1129,0.12,0.1247,0.1315,0.1354,0.1409,0.1458,0.1516,0.1566,0.1624,0.1655,0.1706,0.1699,0.1727,0.1748,0.1768,0.1795,0.1756,0.1791,0.1792,0.1717,0.1768,0.1776,0.185,0.1851,0.1853,0.1854,0,0.1142,0.1193,0.1261,0.1347,0.137,0.1415,0.1501,0.1553,0.1633,0.1673,0.1728,0.1756,0.1811,0.1789,0.185,0.1831,0.1841,0.1847,0.185,0.1762,0.173,0.1793,0.1868,0.1867,0.1866,0.1865,0.1864,0,0.1102,0.1199,0.1256,0.1286,0.1386,0.1429,0.1486,0.1569,0.1621,0.1712,0.1756,0.1817,0.1862,0.1883,0.1914,0.1891,0.1971,0.1934,0.1877,0.1872,0.1894,0.1886,0.197,0.197,0.197,0.197,0.197,0,0.1091,0.1139,0.1246,0.1275,0.1342,0.1419,0.1494,0.1557,0.165,0.1711,0.1783,0.1831,0.1889,0.1941,0.1945,0.1947,0.2001,0.1893,0.1886,0.1917,0.1911,0.1901,0.1892,0.1973,0.1972,0.1971,0.1971,0,0.1036,0.111,0.1176,0.1288,0.1325,0.1372,0.1493,0.1541,0.1643,0.1725,0.176,0.1865,0.1935,0.1986,0.2034,0.1985,0.1991,0.1976,0.2033,0.2027,0.1869,0.1863,0.1909,0.1907,0.1905,0.1904,0.1902,0,0.1013,0.1044,0.1166,0.1204,0.1259,0.1345,0.1399,0.1519,0.1572,0.1731,0.1758,0.1875,0.1932,0.194,0.1999,0.2018,0.1991,0.1983,0.1895,0.1875,0.1864,0.186,0.1855,0.19,0.1899,0.1899,0.1898,0,0.0962,0.1014,0.1068,0.1147,0.1213,0.1282,0.1373,0.1402,0.1543,0.165,0.1714,0.1762,0.1845,0.1883,0.1925,0.1926,0.1977,0.1963,0.1966,0.1883,0.1864,0.1854,0.1852,0.1892,0.1893,0.1894,0.1894,0,0.092,0.094,0.1015,0.1076,0.1153,0.1199,0.1259,0.1331,0.14,0.1572,0.1592,0.1718,0.1824,0.1839,0.1874,0.1881,0.1842,0.1765,0.1777,0.1785,0.1712,0.1668,0.1638,0,0,0,0,0,0.0871,0.0888,0.0939,0.1,0.1071,0.1119,0.1233,0.1298,0.1432,0.1438,0.1512,0.1581,0.1649,0.1713,0.1696,0.1831,0.1853,0.1804,0.1771,0.1858,0.1865,0.1792,0,0,0,0,0,0,0.0839,0.0882,0.0908,0.0925,0.0948,0.102,0.1088,0.1183,0.1195,0.1334,0.1372,0.1484,0.1565,0.1631,0.1658,0.1682,0.1632,0.1887,0.1883,0.1854,0.1861,0.1866,0.1794,0,0,0,0,0]},{"header":{"parameterUnit":"m.s-1","parameterCategory":2,"la1":30.2991,"la2":30.254,"lo1":-89.0895,"lo2":-89.0444,"dy":0.0017,"dx":0.0017,"nx":28,"ny":28,"refTime":"2026-02-01T09:00:00:Z","depth":"4","parameterNumber":3,"parameterNumberName":"V-component_of_CURRENTS"},"data":[0,0,0,0,0,0,0,0,0,0,0,0,0,0,0,0,0,0,0,0,0,0,0,0,0,0,0,0,0,0,0,0,0,0,0,0,0,0,0,0,0,0,0,0,0,0,0,0,0,0,0,0,0,0,0,0,0,0,0.0031,0.0031,0,-0.0018,-0.0019,-0.002,-0.005,-0.005,-0.0051,-0.0051,-0.0106,-0.0108,-0.0109,0,0,0,0,0,0,0,0,0,0,0,0,0,0.0089,0.0088,0.0031,0.0031,0.003,-0.0018,-0.0019,-0.002,-0.005,-0.005,-0.0051,-0.0051,-0.0106,-0.0107,-0.0109,0,0,0,0,0,0,0,0,0,0,0,0,0,0.0054,0.0087,0.0031,0.0009,0.0006,-0.0018,-0.0019,-0.002,-0.005,-0.005,-0.0051,-0.0051,-0.0105,-0.0107,-0.0109,-0.0116,0,0,-0.0115,-0.0116,0,0,0,0,0,0,0,0,0.0056,0.0052,0.0013,0.001,0.0008,-0.0029,-0.0019,-0.0052,-0.005,-0.0028,-0.0051,-0.0051,-0.0081,-0.0085,-0.0093,-0.0119,-0.0121,-0.0115,-0.0117,-0.0118,-0.0118,0,0,0,0,0,0,0,0.0058,0.0054,0.0012,0.0012,0.0009,-0.0003,-0.0008,-0.0026,-0.0053,-0.003,-0.0033,-0.0038,-0.0082,-0.0091,-0.0095,-0.0122,-0.0115,-0.0117,-0.0118,-0.0119,-0.0179,-0.018,0,0,0,0,0,0,0.0065,0.0056,0.0013,0.001,0.0031,-0.0003,-0.0009,-0.0017,-0.0052,-0.0058,-0.0038,-0.004,-0.0088,-0.0092,-0.0097,-0.0118,-0.0118,-0.0119,-0.0121,-0.0179,-0.018,-0.018,0,0,0,0,0,0,0.0066,0.0062,0.0015,0.0032,0.0025,-0.0004,-0.0012,-0.0017,-0.003,-0.0058,-0.0064,-0.0046,-0.0088,-0.0094,-0.0116,-0.012,-0.012,-0.0122,-0.0179,-0.0179,-0.018,-0.0154,0,0,0,0,0,0,0.0068,0.0062,0.006,0.0032,0.0025,0.0002,-0.0012,-0.0018,-0.0033,-0.0035,-0.0066,-0.0072,-0.0089,-0.0113,-0.0118,-0.0123,-0.0124,-0.0178,-0.0179,-0.018,-0.0154,-0.0153,-0.0153,0,0,0,0,0,0.007,0.007,0.006,0.0055,0.0022,0.0002,-0.0003,-0.0024,-0.0033,-0.0037,-0.006,-0.0071,-0.0122,-0.0115,-0.0121,-0.0126,-0.0178,-0.0179,-0.0179,-0.0154,-0.0153,-0.0153,0,0,0,0,0,0,0.0094,0.0066,0.0054,0.0045,0.0025,-0.0003,-0.0008,-0.0024,-0.0045,-0.0048,-0.0074,-0.0081,-0.0103,-0.0119,-0.0111,-0.0147,-0.0153,-0.0155,-0.0131,-0.0131,-0.013,-0.0117,-0.0125,0,0,0,0,0,0.0098,0.0089,0.0061,0.0054,0.0046,0.0019,0.0008,-0.0007,-0.003,-0.0039,-0.0062,-0.0088,-0.0111,-0.0123,-0.0146,-0.0163,-0.0182,-0.0172,-0.0171,-0.017,-0.0164,-0.0203,-0.0205,-0.0183,-0.0183,-0.0183,0,0,0.0106,0.0089,0.0084,0.0059,0.0042,0.0034,0.0012,-0.0003,-0.0011,-0.0042,-0.0059,-0.0086,-0.0116,-0.0137,-0.0148,-0.015,-0.0187,-0.0171,-0.017,-0.0165,-0.0204,-0.0206,-0.0208,-0.0184,-0.0184,-0.0183,0,0,0.0121,0.0102,0.0101,0.0086,0.0062,0.0045,0.0042,0.0012,-0.0002,-0.0022,-0.0049,-0.0077,-0.0109,-0.0134,-0.015,-0.016,-0.0183,-0.0168,-0.0153,-0.0191,-0.0193,-0.0195,-0.0221,-0.0225,-0.0168,-0.0167,-0.0167,0,0.0133,0.0125,0.0098,0.0093,0.0086,0.0052,0.0053,0.0033,-0.0,-0.001,-0.0023,-0.0081,-0.0108,-0.0137,-0.0142,-0.0157,-0.0178,-0.0152,-0.019,-0.0192,-0.0194,-0.022,-0.0226,-0.0166,-0.0166,-0.0167,-0.0167,0,0.0144,0.0139,0.0138,0.012,0.0109,0.0104,0.0075,0.0061,0.0039,0.0017,-0.0017,-0.006,-0.0092,-0.0111,-0.0129,-0.016,-0.0169,-0.0184,-0.0188,-0.0195,-0.0222,-0.0228,-0.0165,-0.0165,-0.0165,-0.0166,0,0,0.017,0.0151,0.0151,0.0153,0.0124,0.0121,0.0106,0.0085,0.0081,0.0037,0.0025,-0.003,-0.0056,-0.0077,-0.0111,-0.0147,-0.0186,-0.0169,-0.0171,-0.0187,-0.0262,-0.0246,-0.0251,-0.0208,-0.0209,-0.0209,-0.0273,0,0.0188,0.0194,0.0176,0.0185,0.0187,0.0157,0.0152,0.0128,0.01,0.0079,0.0023,-0.0001,-0.0043,-0.0057,-0.0102,-0.0161,-0.02,-0.0166,-0.0259,-0.0261,-0.0241,-0.0257,-0.0212,-0.0278,-0.0279,-0.028,-0.0281,0,0.0205,0.0208,0.0222,0.0224,0.0223,0.0223,0.0213,0.0202,0.016,0.014,0.0096,0.0053,-0.0005,-0.0039,-0.0148,-0.0124,-0.019,-0.024,-0.0244,-0.0241,-0.0256,-0.0272,-0.0292,-0.0291,-0.029,-0.0289,-0.0289,0,0.0239,0.0242,0.026,0.0258,0.0251,0.0255,0.025,0.0221,0.0221,0.0177,0.0175,0.0092,0.0061,-0.0037,-0.0144,-0.0148,-0.0261,-0.0281,-0.0331,-0.0331,-0.0337,-0.0334,-0.0363,-0.0363,-0.0363,-0.0363,-0.0363,0,0.0262,0.0277,0.028,0.0289,0.032,0.0296,0.0318,0.03,0.028,0.0291,0.0212,0.0202,0.0059,-0.0023,-0.0129,-0.0241,-0.0253,-0.0328,-0.0348,-0.0324,-0.0319,-0.0341,-0.0337,-0.0365,-0.0365,-0.0364,-0.0364,0,0.029,0.029,0.0316,0.0325,0.0336,0.0357,0.0374,0.0387,0.0362,0.0373,0.0365,0.0279,0.0176,0.0035,-0.0122,-0.0207,-0.0324,-0.0364,-0.0317,-0.0333,-0.0373,-0.0368,-0.0426,-0.0426,-0.0426,-0.0426,-0.0426,0,0.0302,0.0318,0.0354,0.0383,0.039,0.042,0.0446,0.0432,0.0448,0.0427,0.0438,0.0344,0.0274,0.0075,-0.0088,-0.0289,-0.0322,-0.0383,-0.0394,-0.0367,-0.0381,-0.0375,-0.037,-0.0426,-0.0426,-0.0426,-0.0426,0,0.0328,0.0343,0.037,0.0433,0.0471,0.0516,0.0547,0.0568,0.0558,0.0538,0.0508,0.0394,0.0277,0.0097,-0.0062,-0.0209,-0.0344,-0.0384,-0.0386,-0.0396,-0.0368,-0.038,-0.0375,-0.0426,-0.0426,-0.0426,-0.0426,0,0.0353,0.0382,0.0425,0.0481,0.0539,0.0595,0.0606,0.0623,0.0631,0.0599,0.0588,0.045,0.0355,0.0138,-0.0005,-0.015,-0.0194,-0.0244,-0.0254,-0.0256,-0.0193,-0.0132,-0.0133,0,0,0,0,0,0.0373,0.0412,0.047,0.0536,0.0597,0.0634,0.0671,0.0672,0.0666,0.0658,0.0622,0.0514,0.0297,0.0196,0.0056,-0.0016,-0.0224,-0.0186,-0.0288,-0.0426,-0.0426,-0.038,0,0,0,0,0,0,0.0388,0.0444,0.0475,0.0573,0.0632,0.0702,0.0731,0.0727,0.0714,0.0683,0.057,0.0491,0.0277,0.039,0.0062,0.0015,-0.0069,-0.0297,-0.03,-0.0426,-0.0426,-0.0426,-0.0379,0,0,0,0,0]}]]